AirNav   Pilot Hours Calculator
 
 854 users online  

M90 William Robert Johnston Municipal Airport
Mendota, California, USA

GOING TO MENDOTA?


FAA INFORMATION EFFECTIVE 26 MARCH 2020

Location

FAA Identifier: M90
Lat/Long: 36-45-31.0000N 120-22-17.0000W
36-45.516667N 120-22.283333W
36.7586111,-120.3713889
(estimated)
Elevation: 162 ft. / 49 m (estimated)
Variation: 15E (1985)
Time zone: UTC -7 (UTC -8 during Standard Time)
Zip code: 93640

Airport Operations

Airport use: Open to the public
Activation date: 08/1957
Control tower: no
ARTCC: OAKLAND CENTER
FSS: RANCHO MURIETA FLIGHT SERVICE STATION
NOTAMs facility: RIU (NOTAM-D service available)
Attendance: UNATNDD
Wind indicator: yes
Segmented circle: yes

Airport Communications

CTAF: 122.9
WX ASOS at MAE (18 nm NE): 134.725 (559-674-1781)

Nearby radio navigation aids

VOR radial/distance  VOR name  Freq  Var
PXNr066/19.8PANOCHE VORTAC112.6016E
HYPr162/27.7EL NIDO VOR/DME114.2015E
CZQr239/27.8CLOVIS VORTAC112.9015E
ROMr005/(39.7)PRIEST VOR110.0016E

Airport Services

Parking: tiedowns

Runway Information

Runway 15/33

Dimensions: 3499 x 50 ft. / 1066 x 15 m
Surface: asphalt, in fair condition
Weight bearing capacity: 
Single wheel: 12.5
RUNWAY 15  RUNWAY 33
Latitude: 36-45.798333N36-45.251500N
Longitude: 120-22.404667W120-22.177167W
Traffic pattern: leftright
Displaced threshold: no777 ft.
Markings: basic, in fair conditionbasic, in fair condition
Runway end identifier lights: nono
Obstructions: none17 ft. bldg, 423 ft. from runway, 190 ft. left of centerline, 13:1 slope to clear
APCH RATIO TO DSPLCD THR 50:1.

Airport Ownership and Management from official FAA records

Ownership: Publicly-owned
Owner: CITY OF MENDOTA
643 QUINCE ST
MENDOTA, CA 93640-2334
Phone 559-655-4298
Manager: CRISTIAN GONZALES
643 QUINCE ST
MENDOTA, CA 93640-2334
Phone (559) 655-4298
CITY MANAGER X 109.

Airport Operational Statistics

Aircraft operations: avg 77/week *
50% transient general aviation
50% local general aviation
* for 12-month period ending 12 April 2019

Additional Remarks

ARPT CLSD NIGHTS.
FOR CD CTC NORCAL APCH AT 916-361-0516.
PARL TWY ROUGH/UNEVEN SFC; EXTSV ASPH RPR AND PATCHING.

Instrument Procedures

There are no published instrument procedures at M90.

Some nearby airports with instrument procedures:

F34 - Firebaugh Airport (8 nm NW)
KMAE - Madera Municipal Airport (18 nm NE)
KFCH - Fresno Chandler Executive Airport (27 nm E)
KLSN - Los Banos Municipal Airport (30 nm NW)
KFAT - Fresno Yosemite International Airport (31 nm E)
 
Loc | Ops | Rwys | IFR | FBO | Links
Com | Nav | Svcs | Stats | Notes
Area around M90 (William Robert Johnston Municipal Airport)
 
Road maps at: MapQuest Bing Google
 
Aerial photo
WARNING: Photo may not be current or correct
Aerial photo of M90 (William Robert Johnston Municipal Airport)
Do you have a better or more recent aerial photo of William Robert Johnston Municipal Airport that you would like to share? If so, please send us your photo.

 
Sectional chart

 
Airport distance calculator
Flying to William Robert Johnston Municipal Airport? Find the distance to fly.

From to M90

Sunrise and sunset
Times for 05-Apr-2020
 Local
(UTC-7)
 Zulu
(UTC)
Morning civil twilight06:1513:15
Sunrise06:4113:41
Sunset19:2702:27
Evening civil twilight19:5302:53

Current date and time
Zulu (UTC)  05-Apr-2020 16:40:58
Local (UTC-7)  05-Apr-2020 09:40:58
 
METAR
KMAE 
18nm NE 
051553Z AUTO 14017G24KT 10SM BKN110 13/09 A2976 RMK AO2 SLP076 T01280089
KFCH 
27nm E 
051615Z AUTO 14011G18KT 10SM 14/08 A2980 RMK A01
KFAT 
32nm E 
051553Z 14014KT 10SM FEW060 SCT080 OVC100 14/07 A2979 RMK AO2 SLP085 T01390072
KMCE 
32nm N 
051553Z AUTO 13014KT 10SM OVC060 12/09 A2971 RMK AO2 SLP061 T01170089
KNLC 
33nm SE 
051556Z 16017KT 10SM FEW020 SCT040 BKN100 BKN200 16/07 A2979 RMK AO2 SLP086 -SHRA W RH/57 T01610072 PNO $
TAF
KFAT 
32nm E 
051140Z 0512/0612 12005KT P6SM BKN070 OVC100 FM051900 15014KT 6SM -RA SCT030 OVC050 TEMPO 0519/0523 15016G26KT 4SM RA BR BKN030 OVC050 FM060400 15006KT 4SM RA BR BKN030 OVC050 FM060900 VRB04KT 6SM -RA OVC050
KMCE 
32nm N 
051140Z 0512/0612 14006KT P6SM VCSH BKN100 FM051600 13011KT 6SM -RA SCT030 OVC050 TEMPO 0516/0518 13013G19KT 4SM RA BR BKN030 OVC050 FM051800 14008KT 4SM RA BR BKN030 OVC050 FM060900 VRB04KT 6SM -RA BR OVC050
KNLC 
33nm SE 
0415/0515 VRB06KT 9999 FEW080 QNH2987INS FM042300 VRB06KT 9999 SCT040 BKN050 QNH2975INS TEMPO 0509/0515 16010G18KT 6000 SHRA BR SCT010 BKN020 OVC040 LAST NO AMDS AFT 0422 NEXT 0515 T22/0422Z T03/0512Z COR 0058 FS30149
KMER 
39nm N 
051140Z 0512/0612 18005KT P6SM BKN110 FM051600 13011KT 6SM -RA SCT030 OVC050 TEMPO 0516/0518 13013G19KT 4SM RA BR BKN030 OVC050 FM051800 14008KT 4SM RA BR BKN030 OVC050 FM060900 VRB04KT 6SM -RA BR OVC050
NOTAMs
Click for the latest NOTAMs
NOTAMs are issued by the DoD/FAA and will open in a separate window not controlled by AirNav.

 

 
 

Would you like to see your business listed on this page?

 If your business provides an interesting product or service to pilots, flight crews, aircraft, or users of the William Robert Johnston Municipal Airport, you should consider listing it here.  To start the listing process, click on the button below
 
Add a business
 

Other Pages about William Robert Johnston Municipal Airport

Update a link
 
Copyright © AirNav, LLC. All rights reserved. Privacy Policy  Contact